DW1223 Weather Reports


time (UTC)temp
F
wind
direction
speed
knots
gust
knots
rain 1hr
in
rain 24hr
in
rain mn
in
humidity
%
barometer
mb
20260505004239 57 4 6.1 7.0 0.00 0.00 0.00 42 1014.1
20260505003737 58 21 3.5 6.1 0.00 0.00 0.00 42 1014.4
20260505003235 58 14 1.7 2.6 0.00 0.00 0.00 43 1014.1
20260505002731 59 357 7.0 8.7 0.00 0.00 0.00 41 1014.1
20260505002228 60 356 1.7 1.7 0.00 0.00 0.00 41 1014.1
20260505001725 60 50 1.7 1.7 0.00 0.00 0.00 41 1014.0
20260505001223 61 359 3.5 3.5 0.00 0.00 0.00 40 1014.0
20260505000720 62 359 3.5 5.2 0.00 0.00 0.00 39 1013.9
20260505000219 62 64 0.9 1.7 0.00 0.00 0.00 41 1014.0
20260504235714 62 53 3.5 5.2 0.00 0.00 0.00 38 1013.8
20260504235210 61 19 1.7 2.6 0.00 0.00 0.00 39 1013.7
20260504234708 61 20 7.0 7.8 0.00 0.00 0.00 38 1013.8
20260504234205 61 51 5.2 9.6 0.00 0.00 0.00 40 1013.8
20260504233700 62 103 4.3 6.1 0.00 0.00 0.00 39 1013.8
20260504233156 61 115 3.5 5.2 0.00 0.00 0.00 38 1014.0
20260504232654 61 339 7.0 7.8 0.00 0.00 0.00 39 1014.1
20260504232151 61 74 7.8 9.6 0.00 0.00 0.00 39 1013.9
20260504231648 62 10 4.3 7.0 0.00 0.00 0.00 39 1013.9
20260504231144 62 29 2.6 2.6 0.00 0.00 0.00 39 1013.9
20260504230640 62 109 3.5 5.2 0.00 0.00 0.00 40 1013.9
20260504230139 62 37 6.1 7.0 0.00 0.00 0.00 39 1013.7
20260504225637 62 47 2.6 6.1 0.00 0.00 0.00 39 1013.8
20260504225133 63 0 1.7 3.5 0.00 0.00 0.00 40 1013.7
20260504224630 62 343 2.6 5.2 0.00 0.00 0.00 40 1013.7
20260504224127 62 59 1.7 2.6 0.00 0.00 0.00 40 1013.8
20260504223624 62 7 3.5 3.5 0.00 0.00 0.00 39 1013.8
20260504223120 62 66 1.7 2.6 0.00 0.00 0.00 38 1013.8
20260504222617 62 55 6.1 8.7 0.00 0.00 0.00 37 1013.8
20260504222114 62 15 0.9 1.7 0.00 0.00 0.00 41 1013.6
20260504221611 63 34 1.7 1.7 0.00 0.00 0.00 39 1013.4
20260504221108 62 21 1.7 1.7 0.00 0.00 0.00 39 1013.5
20260504220604 63 99 3.5 5.2 0.00 0.00 0.00 37 1013.5
20260504215558 63 131 3.5 3.5 0.00 0.00 0.00 38 1013.6
20260504215056 64 6 1.7 1.7 0.00 0.00 0.00 36 1013.6
20260504214551 63 39 4.3 5.2 0.00 0.00 0.00 38 1013.6
20260504214048 62 106 3.5 3.5 0.00 0.00 0.00 38 1013.5
20260504213544 62 90 3.5 5.2 0.00 0.00 0.00 39 1013.5
20260504213041 63 107 4.3 7.8 0.00 0.00 0.00 38 1013.5
20260504212537 63 19 3.5 5.2 0.00 0.00 0.00 39 1013.4
20260504212035 63 64 2.6 2.6 0.00 0.00 0.00 37 1013.4
20260504211531 62 69 0.0 0.9 0.00 0.00 0.00 40 1013.6
20260504211028 62 86 0.9 1.7 0.00 0.00 0.00 37 1013.5
20260504210525 62 85 3.5 5.2 0.00 0.00 0.00 39 1013.6
20260504210022 63 89 3.5 3.5 0.00 0.00 0.00 37 1013.6
20260504205520 63 96 5.2 6.1 0.00 0.00 0.00 37 1013.5
20260504205018 63 55 5.2 7.0 0.00 0.00 0.00 36 1013.5
20260504204515 63 18 1.7 2.6 0.00 0.00 0.00 38 1013.5
20260504204014 63 141 1.7 2.6 0.00 0.00 0.00 37 1013.5
20260504203512 63 89 5.2 7.0 0.00 0.00 0.00 38 1013.6
20260504203009 63 67 3.5 5.2 0.00 0.00 0.00 39 1013.6
20260504202505 63 20 0.9 1.7 0.00 0.00 0.00 38 1013.7
20260504202001 62 14 2.6 5.2 0.00 0.00 0.00 43 1013.5
20260504201459 62 101 3.5 5.2 0.00 0.00 0.00 40 1013.7
20260504200956 62 35 2.6 2.6 0.00 0.00 0.00 39 1013.6
20260504200453 62 118 1.7 2.6 0.00 0.00 0.00 40 1013.7
20260504195949 63 32 3.5 7.0 0.00 0.00 0.00 40 1013.6
20260504195445 64 104 7.0 7.8 0.00 0.00 0.00 37 1013.5
20260504194942 64 94 4.3 5.2 0.00 0.00 0.00 39 1013.7
20260504194438 63 120 2.6 3.5 0.00 0.00 0.00 39 1013.8
20260504193934 64 51 5.2 7.0 0.00 0.00 0.00 38 1013.6
20260504193432 62 12 0.9 0.9 0.00 0.00 0.00 42 1013.7
20260504192930 62 102 5.2 6.1 0.00 0.00 0.00 40 1013.8
20260504192427 64 67 0.9 1.7 0.00 0.00 0.00 37 1013.8
20260504191926 63 136 2.6 5.2 0.00 0.00 0.00 38 1013.9
20260504191424 62 61 3.5 3.5 0.00 0.00 0.00 37 1013.8
20260504190919 63 335 1.7 1.7 0.00 0.00 0.00 37 1013.8
20260504190414 62 120 2.6 5.2 0.00 0.00 0.00 39 1013.8
20260504185911 62 89 2.6 3.5 0.00 0.00 0.00 40 1013.8
20260504185409 63 5 3.5 5.2 0.00 0.00 0.00 39 1014.0
20260504184904 63 327 4.3 6.1 0.00 0.00 0.00 38 1013.8
20260504184400 63 111 1.7 2.6 0.00 0.00 0.00 38 1014.1
20260504183856 62 128 4.3 5.2 0.00 0.00 0.00 41 1014.1
20260504183354 62 82 5.2 7.0 0.00 0.00 0.00 36 1014.1
20260504182851 63 113 0.9 1.7 0.00 0.00 0.00 38 1013.9
20260504182349 62 44 1.7 1.7 0.00 0.00 0.00 40 1014.0
20260504181845 61 62 0.9 1.7 0.00 0.00 0.00 36 1013.9
20260504181343 62 114 3.5 3.5 0.00 0.00 0.00 40 1014.2
20260504180842 61 63 2.6 3.5 0.00 0.00 0.00 38 1014.0
20260504180340 62 114 5.2 6.1 0.00 0.00 0.00 37 1014.2
20260504175838 62 70 1.7 2.6 0.00 0.00 0.00 42 1014.1
20260504175334 62 64 1.7 2.6 0.00 0.00 0.00 37 1014.1
20260504174832 61 28 3.5 3.5 0.00 0.00 0.00 39 1014.1
20260504174329 61 40 3.5 3.5 0.00 0.00 0.00 42 1014.2
20260504173826 61 97 1.7 2.6 0.00 0.00 0.00 38 1014.2
20260504173323 61 116 3.5 5.2 0.00 0.00 0.00 37 1014.4
20260504172820 61 29 1.7 1.7 0.00 0.00 0.00 38 1014.4
20260504172316 60 174 3.5 3.5 0.00 0.00 0.00 37 1014.4
20260504171812 61 80 5.2 6.1 0.00 0.00 0.00 39 1014.2
20260504171310 61 16 0.9 1.7 0.00 0.00 0.00 40 1014.4
20260504170807 61 1 3.5 3.5 0.00 0.00 0.00 40 1014.2
20260504170304 60 40 0.0 0.9 0.00 0.00 0.00 38 1014.1
20260504160222 58 82 2.6 3.5 0.00 0.00 0.00 40 1014.5
20260504151150 56 25 3.5 3.5 0.00 0.00 0.00 44 1014.7
20260504150647 56 11 3.5 3.5 0.00 0.00 0.00 47 1014.6
20260504150144 56 15 4.3 6.1 0.00 0.00 0.00 45 1014.9
20260504141113 54 14 0.9 1.7 0.00 0.00 0.00 46 1014.5
20260504140610 53 326 2.6 3.5 0.00 0.00 0.00 47 1014.6
20260504140105 53 356 1.7 1.7 0.00 0.00 0.00 48 1014.7
20260504130534 51 315 4.3 5.2 0.00 0.00 0.00 47 1013.8
20260504110421 52 293 2.6 2.6 0.00 0.00 0.00 44 1013.0
20260504100338 54 322 2.6 2.6 0.00 0.00 0.00 43 1012.6
20260504081731 58 357 5.2 7.0 0.00 0.00 0.00 40 1011.8
20260504081228 59 20 3.5 3.5 0.00 0.00 0.00 40 1011.5
20260504080724 59 321 5.2 7.0 0.00 0.00 0.00 39 1011.3
20260504080220 59 350 3.5 3.5 0.00 0.00 0.00 40 1011.5
20260504070148 53 259 2.6 2.6 0.00 0.00 0.00 62 1010.6
20260504060109 50 269 3.5 3.5 0.00 0.00 0.00 69 1009.6
20260504050537 53 282 1.7 2.6 0.00 0.00 0.00 61 1009.8
20260504045531 53 274 1.7 1.7 0.00 0.00 0.00 61 1009.7
20260504045026 53 272 2.6 2.6 0.00 0.00 0.00 61 1009.6
20260504044524 53 264 1.7 1.7 0.00 0.00 0.00 63 1009.7
20260504044021 53 277 1.7 1.7 0.00 0.00 0.00 62 1009.8
20260504043518 54 268 1.7 1.7 0.00 0.00 0.00 60 1009.8
20260504043015 54 278 1.7 1.7 0.00 0.00 0.00 59 1009.9
20260504042512 54 295 1.7 1.7 0.00 0.00 0.00 59 1009.8
20260504042009 55 291 1.7 1.7 0.00 0.00 0.00 59 1009.9
20260504041505 55 309 1.7 1.7 0.00 0.00 0.00 58 1009.9
20260504041001 55 303 1.7 2.6 0.00 0.00 0.00 57 1009.7
20260504040459 55 285 1.7 2.6 0.00 0.00 0.00 57 1009.8
20260504035954 55 313 0.9 0.9 0.00 0.00 0.00 58 1009.7
20260504035452 55 304 1.7 1.7 0.00 0.00 0.00 60 1009.8
20260504034948 55 308 0.9 1.7 0.00 0.00 0.00 61 1009.4
20260504034446 55 285 1.7 1.7 0.00 0.00 0.00 60 1009.5
20260504033943 55 301 1.7 1.7 0.00 0.00 0.00 60 1009.5
20260504033441 56 294 0.9 1.7 0.00 0.00 0.00 60 1009.5
20260504032938 56 313 1.7 1.7 0.00 0.00 0.00 59 1009.7
20260504032434 56 293 0.9 1.7 0.00 0.00 0.00 59 1009.5
20260504031931 57 281 2.6 2.6 0.00 0.00 0.00 60 1009.6
20260504031428 57 286 1.7 1.7 0.00 0.00 0.00 59 1009.3
20260504030925 58 280 1.7 2.6 0.00 0.00 0.00 58 1009.3
20260504030422 58 287 1.7 2.6 0.00 0.00 0.00 56 1009.4
20260504025917 59 278 2.6 2.6 0.00 0.00 0.00 54 1009.2
20260504025415 59 284 2.6 2.6 0.00 0.00 0.00 56 1009.3
20260504024912 60 263 1.7 1.7 0.00 0.00 0.00 55 1009.2
20260504024409 60 277 1.7 1.7 0.00 0.00 0.00 53 1009.3
20260504023906 61 268 1.7 1.7 0.00 0.00 0.00 51 1009.3
20260504023402 62 285 2.6 2.6 0.00 0.00 0.00 49 1009.2
20260504022857 63 279 2.6 2.6 0.00 0.00 0.00 46 1009.2
20260504022354 64 307 2.6 2.6 0.00 0.00 0.00 44 1009.4
20260504021851 66 285 1.7 1.7 0.00 0.00 0.00 41 1009.1
20260504021348 67 295 1.7 1.7 0.00 0.00 0.00 38 1009.3
20260504020845 68 291 1.7 1.7 0.00 0.00 0.00 37 1009.0
20260504020342 68 287 0.9 1.7 0.00 0.00 0.00 36 1009.1
20260504015838 69 38 0.0 0.9 0.00 0.00 0.00 36 1009.2
20260504015334 69 288 1.7 1.7 0.00 0.00 0.00 29 1009.1
20260504014831 69 36 0.0 0.0 0.00 0.00 0.00 35 1009.3
20260504014326 69 27 0.0 0.0 0.00 0.00 0.00 34 1009.0
20260504013825 69 50 0.0 0.0 0.00 0.00 0.00 33 1009.1
20260504013322 70 55 0.0 0.0 0.00 0.00 0.00 36 1009.1
20260504012819 70 7 1.7 2.6 0.00 0.00 0.00 32 1009.1
20260504012316 69 5 1.7 2.6 0.00 0.00 0.00 33 1009.3
20260504011814 70 22 0.0 0.9 0.00 0.00 0.00 38 1009.3
20260504011310 70 356 0.9 0.9 0.00 0.00 0.00 34 1009.3
20260504010806 71 21 0.9 0.9 0.00 0.00 0.00 36 1009.4
20260504010302 72 26 0.0 0.9 0.00 0.00 0.00 36 1009.5
20260504005759 73 48 0.9 0.9 0.00 0.00 0.00 31 1009.3
20260504005256 73 78 2.6 2.6 0.00 0.00 0.00 32 1009.3
20260504004753 74 66 0.9 1.7 0.00 0.00 0.00 31 1009.4